Location: Poughquag
(41.6090°N, 73.6820°W)
Time: 08:41:41
(UTC-05:00)

Altair - Pass Details

Date: 02 December 2023
Orbit: 1501 x 1682 km, 47.2° (Epoch: 02 March)

Event Time Altitude Azimuth Distance (km) Brightness Sun altitude
Rises 13:24:57 0° 291° (WNW) 4,711 10.1 22.2°
Reaches altitude 10° 13:28:03 10° 293° (WNW) 3,708 9.6 22.0°
Maximum altitude 13:37:24 78° 20° (NNE) 1,540 7.8 21.2°
Drops below altitude 10° 13:46:34 10° 107° (ESE) 3,649 9.4 20.4°
Sets 13:49:36 0° 109° (ESE) 4,634 9.9 20.1°
